Regional Weather Roundup
Issued by NWS

Home | Current Version | Previous Version | Graphics & Text | Print | Product List | Glossary On
Versions: 1 2 3 4 5 6 7 8 9 10 11 12 13 14 15 16 17 18 19 20 21 22 23 24 25 26 27 28 29 30 31 32 33 34 35 36 37 38 39 40 41 42 43 44 45 46 47 48 49 50
700
ASUS45 KTFX 261110
RWRMT
MONTANA REGIONAL WEATHER ROUNDUP
NATIONAL WEATHER SERVICE GREAT FALLS MT
500 AM MDT MON SEP 26 2016

NOTE: "FAIR" INDICATES FEW OR NO CLOUDS BELOW 12000 FEET WITH NO
SIGNIFICANT WEATHER AND/OR OBSTRUCTIONS TO VISIBILITY.

MTZ001>007-043-261200-
WEST OF THE DIVIDE

CITY           SKY/WX    TMP DP  RH WIND       PRES   REMARKS
KALISPELL      PTCLDY    36  35  96 CALM      30.39R
MISSOULA       CLEAR     43  41  93 CALM      30.42S
BUTTE          CLOUDY    36  34  92 S5        30.45S
MULLAN PASS    CLEAR     49  38  65 S8        30.43F
ANACONDA         N/A     39  36  87 S3        30.43F
DEER LODGE       N/A     41  37  87 CALM      30.46S
EUREKA           N/A     39  37  93 CALM      30.37F
HAMILTON         N/A     43  39  87 CALM      30.42S
LIBBY            N/A     39  39 100 CALM      30.37F
PLAINS           N/A     39  34  82 CALM      30.36
RONAN            N/A     39  35  85 CALM      30.38F
$$

MTZ008-052>055-261200-
SOUTHWEST MONTANA

CITY           SKY/WX    TMP DP  RH WIND       PRES   REMARKS
BOZEMAN        CLEAR     43  38  82 SE8       30.41S
DILLON         CLOUDY    44  38  79 SW10      30.43R
W YELLOWSTONE    N/A     27  27 100 CALM      30.52S
ENNIS          CLEAR     43  37  81 N5        30.48R
$$

MTZ009-010-012-014-046-048-049-054-261200-
EAST SLOPES AND CENTRAL MONTANA

CITY           SKY/WX    TMP DP  RH WIND       PRES   REMARKS
CUT BANK       PTCLDY    43  39  86 SE5       30.29F
GREAT FALLS    CLOUDY    49  41  74 SW12      30.32F
MALMSTROM AFB  CLOUDY    47  42  82 SW13      30.32S
HELENA         CLOUDY    52  41  66 CALM      30.37R
AUGUSTA          N/A     49  39  68 W6G17     30.33F
BOWMANS CRNR     N/A     47  39  75 S9        30.33F
CHOTEAU          N/A     48  41  76 SW8       30.33F
CONRAD           N/A     40  39  96 CALM      30.28F
FAIRFIELD        N/A     47  39  72 SW2       30.31F
POWER            N/A     42  38  85 SW5       30.31F
RAYNESFORD       N/A     46  40  81 E3        30.33F
$$

MTZ011-013-016-021-045-047-050-051-261200-
NORTH CENTRAL MONTANA

CITY           SKY/WX    TMP DP  RH WIND       PRES   REMARKS
HAVRE          CLEAR     44  41  89 SW9       30.27S
LEWISTOWN      CLEAR     46  40  79 SW10      30.34S
N BAR RANCH      N/A     46  39  76 NW15      30.34S
CHINOOK          N/A     39  37  93 CALM      30.26F
DENTON           N/A     45  41  85 SW13      30.28S
GEYSER           N/A     49  39  68 W6G17     30.33F
GRASS RANGE      N/A     47  41  78 SW14      30.29S
JUDITH GAP       N/A     45  39  79 N3        30.35S
ROY              N/A     45  41  84 MISG      30.29S
STANFORD         N/A     48  41  75 W7        30.34S
WINIFRED         N/A     48  41  76 MISG      30.31S
$$

MTZ017>020-022>027-061-062-261200-
NORTHEAST MONTANA

CITY           SKY/WX    TMP DP  RH WIND       PRES   REMARKS
GLASGOW        CLEAR     39  35  86 NW13      30.22S WCI  31
JORDAN           N/A     43  39  86 NW7       30.24R
SIDNEY         CLEAR     37  35  92 CALM      30.22S
WOLF POINT     CLEAR     37  35  92 CALM      30.22S
PLENTYWOOD       N/A     39  34  81 W5        30.20S
POPLAR           N/A     37  34  87 CALM      30.22S
SCOBEY           N/A     31  24  75 CALM      30.18
$$

MTZ028>42-056>058-261200-
SOUTHCENTRAL AND SOUTHEAST MONTANA

CITY           SKY/WX    TMP DP  RH WIND       PRES   REMARKS
BAKER          CLEAR     38  35  89 CALM      30.25S
BILLINGS       CLEAR     54  42  64 SW18      30.34R
LIVINGSTON     CLEAR     46  39  76 NW10      30.37F
MILES CITY     CLEAR     44  40  85 SW7       30.24S
BIG TIMBER     CLEAR     52  41  66 W8G17     30.37S
EKALAKA          N/A     47  35  63 SW2       30.22S
FORSYTH          N/A     45  43  93 SW6       30.26S
HARLOWTON        N/A     46  40  79 W17       30.35S
LAUREL           N/A     46  39  76 CALM      30.30S
ROUNDUP          N/A     47  38  71 S10       30.20S
$$

REGIONAL REPORTS...DAKOTAS

CITY           SKY/WX    TMP DP  RH WIND       PRES   REMARKS
WILLISTON      CLEAR     37  32  82 S5        30.20R
MINOT          CLEAR     45  34  65 W13       30.11R
DICKINSON      CLOUDY    40  34  79 W6        30.19S
CROSBY           N/A     41  32  70 W9        30.18S
WATFORD CITY     N/A     37  36  93 SW10      30.20S WCI  30
BISMARCK       CLEAR     41  34  76 W10       30.17R
GRAND FORKS    CLEAR     49  37  63 NW17G24   29.94R
FARGO          CLEAR     48  36  63 W14       29.97R
BUFFALO SD       N/A     42  37  82 W10       30.18S
RAPID CITY     CLEAR     39  33  79 W3        30.27F
$$

REGIONAL REPORTS...WYOMING/IDAHO/WASHINGTON

CITY           SKY/WX    TMP DP  RH WIND       PRES   REMARKS
GILLETTE       PTCLDY    47  40  76 W13       30.33S
SHERIDAN       PTCLDY    47  41  80 W7        30.34R
BUFFALO WY     CLEAR     50  37  61 NW3       30.36F
CODY           CLEAR     42  39  89 S5        30.40S
YELLOWSTONE LA   N/A     29  29 100 CALM      30.55F
IDAHO FALLS    CLOUDY    38  36  92 N3        30.44S
SALMON         CLEAR     37  36  93 CALM      30.44F
BOISE          CLEAR     55  40  56 SE10      30.33S
SPOKANE        PTCLDY    54  43  66 E14       30.29F
$$

REGIONAL REPORTS...ALBERTA

CITY           SKY/WX    TMP DP  RH WIND       PRES   REMARKS
EDMONTON       PTCLDY    46  36  66 SW7       30.10F
CALGARY        PTCLDY    48  39  71 S5        30.18F
LETHBRIDGE     CLEAR     48  41  76 SW10      30.23F
MEDICINE HAT   CLEAR     41  39  93 S6        30.21F
WATERTON GATE    N/A     54  39  58 SW22G33     N/A
MILK RIVER       N/A     41  37  87 NW3         N/A
ONEFOUR          N/A     41  36  81 W2          N/A
$$

REGIONAL REPORTS...SASKATCHEWAN

CITY           SKY/WX    TMP DP  RH WIND       PRES   REMARKS
SWIFT CURRENT  CLEAR     39  34  81 SW13      30.19S WCI  32
REGINA         CLEAR     32  30  93 W7        30.15S WCI  26
SASKATOON      CLEAR     32  32 100 W8        30.19R WCI  25
CYPRESS HILLS    N/A     48  30  49 N2          N/A
VAL MARIE        N/A     30  28  93 E2          N/A
ROCKGLEN         N/A     45  30  57 NW5         N/A
ASSINIBOIA       N/A     36  34  93 S6          N/A  WCI  31
$$




USA.gov is the U.S. government's official web portal to all federal, state and local government web resources and services.